Regional Weather Roundup
Issued by NWS

Home | Current Version | Previous Version | Graphics & Text | Print | Product List | Glossary On
Versions: 1 2 3 4 5 6 7 8 9 10 11 12 13 14 15 16 17 18 19 20 21 22 23 24 25 26 27 28 29 30 31 32 33 34 35 36 37 38 39 40 41 42 43 44 45 46 47 48 49 50
000
ASUS43 KFSD 211910
RWRSD

WEATHER ROUNDUP FOR SOUTH DAKOTA
NATIONAL WEATHER SERVICE SIOUX FALLS SD
200 PM CDT MON MAY 21 2018

NOTE: "FAIR" INDICATES FEW OR NO CLOUDS BELOW 12,000 FEET WITH NO
SIGNIFICANT WEATHER AND/OR OBSTRUCTIONS TO VISIBILITY.


SDZ001>005-009-010-012>017-212000-
NORTHWEST AND NORTH CENTRAL SOUTH DAKOTA

CITY           SKY/WX    TMP DP  RH WIND       PRES   REMARKS
BUFFALO          N/A     73  48  41 SE14G21   29.87F
FAITH            N/A     69  50  50 SE13      29.95F
MOBRIDGE       SUNNY     69  51  52 VRB6      29.96F
$$

SDZ012>016-024>037-041>051-057-063-072>074-212000-
SOUTHWEST AND SOUTH CENTRAL SOUTH DAKOTA

CITY           SKY/WX    TMP DP  RH WIND       PRES   REMARKS
RAPID CTY ARPT SUNNY     69  53  56 SE15G23   29.94F
PIERRE         SUNNY     70  45  40 SE5       29.95F
CUSTER         SUNNY     66  43  43 VRB7G17   30.01F
ELLSWORTH AFB  SUNNY     69  54  57 SE15G22   29.93F
PHILIP         SUNNY     72  50  45 MISG      29.94F
PINE RIDGE     SUNNY     71  53  52 VRB6      29.96F
SPEARFISH      FAIR      68  48  49 NE9       29.96F
WINNER         FAIR      72  43  35 VRB3      29.98F
$$

SDZ004>011-016>023-039-040-212000-
NORTHEAST SOUTH DAKOTA

CITY           SKY/WX    TMP DP  RH WIND       PRES   REMARKS
ABERDEEN       CLOUDY    68  54  60 VRB3      29.99F
WATERTOWN      CLOUDY    58  57  97 S6        30.01F FOG
BROOKINGS      CLOUDY    60  55  83 SW5       30.02F
SISSETON         N/A     66  56  70 S9        30.00F
$$

SDZ017-020-022-023-036>040-048>070-212000-
SOUTHEAST SOUTH DAKOTA

CITY           SKY/WX    TMP DP  RH WIND       PRES   REMARKS
SIOUX FALLS    CLOUDY    61  57  87 CALM      30.02S
HURON          CLOUDY    64  54  69 S6        30.00F
CHAMBERLAIN    SUNNY     72  52  49 S5        29.98F
MITCHELL       PTSUNNY   66  56  70 S5        30.00S
YANKTON        PTSUNNY   64  55  72 CALM      30.02F
$$

ABBREVIATIONS USED IN REMARKS
   TC - TEMPERATURE IN CELSIUS
  WCI - WIND CHILL INDEX
   HX - HEAT INDEX
  VSB - VISIBILITY





USA.gov is the U.S. government's official web portal to all federal, state and local government web resources and services.